Voltar ao catálogo

FENGYUN 1C DEB

AtivoSSO
NORAD 36238·DEBRIS·🇨🇳 China

Lançado May 10, 1999 de Taiyuan Satellite Launch Center

Loading…

Próximas Passagens (próximas 24 horas)

TLE

AtualizadoSource: Space-Track

Época: Sep 13, 2026, 15:01 UTC

1 36238U 99025DVP 26256.62608952  .00000056  00000-0  53276-4 0  9994
2 36238  98.6822 225.0772 0020387 215.6257 144.3556 14.12461149908987

Acompanhe FENGYUN 1C DEB em tempo real com AllMySat

Download on the App Store